Weather History for KTKV - April, 2014

Change the Weather History Date:

Saturday, April 12, 2014

  Actual Average (KRHI) Record (KRHI)
Temperature  
Mean Temperature 38 °F 40 °F  
Max Temperature 47 °F 52 °F 77 °F (1968)
Min Temperature 30 °F 29 °F 8 °F (1940)
Degree Days  
Heating Degree Days 27 25  
Month to date heating degree days 330  
Since 1 July heating degree days 8125  
Cooling Degree Days 0 0  
Month to date cooling degree days 0  
Year to date cooling degree days 0  
Moisture  
Dew Point 34 °F    
Average Humidity 85    
Maximum Humidity 94    
Minimum Humidity 67    
Precipitation  
Precipitation 0.07 in 0.07 in 0.74 in (1977)
Month to date precipitation 0.93  
Year to date precipitation 4.54  
Snow  
Snow 0.00 in - 2.50 in (2013)
Month to date snowfall  
Since 1 July snowfall  
Snow Depth -    
Sea Level Pressure  
Sea Level Pressure 29.89 in    
Wind  
Wind Speed 2 mph (East)    
Max Wind Speed 12 mph    
Max Gust Speed 22 mph    
Visibility 9 miles    
Events Rain    
T = Trace of Precipitation, MM = Missing Value Source: NWS Daily Summary

Daily Weather History Graph

Daily Weather History Graph

Search for Another Location

Airport or City:

Trip Planner

Search our weather history database for the weather conditions in past years. The results will help you decide how hot, cold, wet, or windy it might be!

Date:

Astronomy

Apr. 12, 2014 Rise Set
Actual Time 6:19 AM CDT 7:41 PM CDT
Civil Twilight 5:48 AM CDT 8:12 PM CDT
Nautical Twilight 5:11 AM CDT 8:49 PM CDT
Astronomical Twilight 4:32 AM CDT 9:29 PM CDT
Moon 5:13 PM CDT (4/12) 4:53 AM CDT (4/12)
Length of Visible Light 14h 23m
Length of Day
13h 22m
Waxing Gibbous, 93% of the Moon is Illuminated
Apr 12
Waxing Gibbous
Apr 15
Full
Apr 22
Last Quarter
Apr 29
New
May 6
First Quarter

Hourly Weather History & Observations

Time (CDT) Temp. Windchill Dew Point Humidity Pressure Visibility Wind Dir Wind Speed Gust Speed Precip Events Conditions
12:35 AM 31.8 °F - 27.3 °F 83% 29.99 in 10.0 mi Calm Calm - N/A   Clear
12:55 AM 32.0 °F - 27.1 °F 82% 29.99 in 10.0 mi Calm Calm - N/A   Clear
1:15 AM 32.0 °F - 27.9 °F 85% 29.98 in 10.0 mi Calm Calm - N/A   Clear
1:35 AM 32.2 °F - 27.5 °F 83% 29.98 in 10.0 mi Calm Calm - N/A   Scattered Clouds
1:45 AM 32.0 °F - 26.6 °F 80% 29.98 in 10.0 mi Calm Calm - N/A   Mostly Cloudy
1:55 AM 31.8 °F - 27.1 °F 83% 29.98 in 10.0 mi Calm Calm - N/A   Mostly Cloudy
2:15 AM 31.5 °F - 27.1 °F 84% 29.97 in 10.0 mi Calm Calm - N/A   Overcast
2:35 AM 32.0 °F - 27.3 °F 83% 29.97 in 10.0 mi Calm Calm - N/A   Mostly Cloudy
2:55 AM 30.9 °F - 27.5 °F 87% 29.98 in 10.0 mi Calm Calm - N/A   Overcast
3:15 AM 32.0 °F - 27.9 °F 85% 29.98 in 10.0 mi Calm Calm - N/A   Overcast
3:35 AM 32.0 °F - 28.0 °F 85% 29.98 in 10.0 mi Calm Calm - N/A   Overcast
3:55 AM 33.1 °F - 28.6 °F 84% 29.97 in 10.0 mi Calm Calm - N/A   Overcast
4:15 AM 34.2 °F - 28.9 °F 81% 29.97 in 10.0 mi Calm Calm - N/A Rain Light Rain
4:35 AM 34.2 °F - 30.6 °F 87% 29.99 in 10.0 mi Calm Calm - N/A   Drizzle
4:55 AM 35.1 °F - 31.1 °F 85% 29.99 in 10.0 mi Calm Calm - N/A Rain Rain
5:15 AM 34.9 °F - 32.0 °F 89% 29.99 in 10.0 mi Calm Calm - N/A Rain Light Rain
5:35 AM 34.9 °F - 32.0 °F 89% 29.98 in 10.0 mi Calm Calm - N/A   Overcast
5:55 AM 35.4 °F - 32.7 °F 90% 29.97 in 10.0 mi Calm Calm - N/A   Overcast
6:15 AM 35.6 °F - 32.7 °F 89% 29.98 in 10.0 mi Calm Calm - N/A   Overcast
6:35 AM 35.8 °F - 33.3 °F 91% 29.97 in 10.0 mi Calm Calm - N/A   Overcast
6:55 AM 36.9 °F - 33.8 °F 89% 29.97 in 10.0 mi Calm Calm - N/A   Overcast
7:15 AM 37.6 °F - 34.3 °F 88% 29.96 in 10.0 mi Calm Calm - N/A   Overcast
7:35 AM 37.0 °F - 34.3 °F 90% 29.97 in 10.0 mi Calm Calm - N/A   Overcast
7:55 AM 37.4 °F - 35.1 °F 91% 30.00 in 10.0 mi Calm Calm - N/A Rain Rain
8:15 AM 37.9 °F - 35.8 °F 92% 29.98 in 5.0 mi Calm Calm - 0.01 in Rain Light Rain
8:35 AM 38.3 °F - 36.1 °F 92% 30.00 in 4.0 mi Calm Calm - 0.02 in Rain Light Rain
8:55 AM 38.5 °F 34.1 °F 36.7 °F 93% 30.00 in 4.0 mi NE 5.8 mph - 0.03 in Rain Rain
9:15 AM 38.5 °F 33.4 °F 36.7 °F 93% 29.97 in 3.0 mi East 6.9 mph - 0.01 in Rain Light Rain
9:35 AM 38.7 °F 32.4 °F 36.9 °F 93% 29.97 in 3.0 mi ENE 9.2 mph - 0.02 in   Drizzle
9:55 AM 38.5 °F 33.4 °F 36.9 °F 94% 29.97 in 4.0 mi ENE 6.9 mph - 0.03 in Rain Light Rain
10:15 AM 38.8 °F 33.8 °F 37.0 °F 93% 29.95 in 4.0 mi East 6.9 mph - 0.01 in Rain Light Rain
10:35 AM 40.1 °F 34.7 °F 37.8 °F 91% 29.94 in 5.0 mi East 8.1 mph - 0.01 in   Drizzle
10:55 AM 41.0 °F 35.2 °F 38.3 °F 90% 29.92 in 10.0 mi East 9.2 mph 17.3 mph 0.01 in Rain Light Rain
11:15 AM 41.4 °F 39.4 °F 38.3 °F 89% 29.91 in 10.0 mi East 3.5 mph - N/A Rain Light Rain
11:35 AM 42.4 °F 36.5 °F 37.9 °F 84% 29.90 in 10.0 mi East 10.4 mph 17.3 mph N/A   Overcast
11:55 AM 41.7 °F 35.6 °F 36.3 °F 81% 29.89 in 10.0 mi ESE 10.4 mph 19.6 mph N/A   Overcast
12:15 PM 41.5 °F 36.4 °F 36.1 °F 81% 29.88 in 10.0 mi East 8.1 mph 21.9 mph N/A   Overcast
12:35 PM 43.3 °F 39.2 °F 36.7 °F 77% 29.86 in 10.0 mi ESE 6.9 mph 16.1 mph N/A   Overcast
12:55 PM 43.2 °F 37.0 °F 35.6 °F 75% 29.86 in 10.0 mi ESE 11.5 mph 18.4 mph N/A   Overcast
1:15 PM 44.2 °F 39.7 °F 36.0 °F 73% 29.85 in 10.0 mi East 8.1 mph 18.4 mph N/A   Overcast
1:35 PM 45.9 °F 44.6 °F 36.5 °F 70% 29.83 in 10.0 mi ESE 3.5 mph 18.4 mph N/A   Overcast
1:55 PM 46.8 °F - 36.1 °F 67% 29.82 in 10.0 mi ESE 6.9 mph 18.4 mph N/A   Overcast
2:15 PM 46.6 °F - 36.0 °F 67% 29.81 in 10.0 mi ESE 6.9 mph 18.4 mph N/A   Overcast
2:35 PM 46.0 °F 41.4 °F 35.8 °F 67% 29.81 in 10.0 mi East 9.2 mph - N/A   Overcast
2:55 PM 45.1 °F 43.7 °F 35.8 °F 70% 29.81 in 10.0 mi ESE 3.5 mph - N/A   Overcast
3:15 PM 44.1 °F 39.5 °F 35.6 °F 72% 29.82 in 10.0 mi East 8.1 mph - N/A   Overcast
3:35 PM 43.7 °F 39.1 °F 35.6 °F 73% 29.82 in 10.0 mi East 8.1 mph - N/A   Overcast
3:55 PM 43.3 °F 38.6 °F 35.6 °F 74% 29.82 in 10.0 mi East 8.1 mph 16.1 mph N/A   Overcast
4:15 PM 42.8 °F 41.1 °F 35.4 °F 75% 29.81 in 10.0 mi East 3.5 mph - N/A   Overcast
4:35 PM 41.9 °F 35.9 °F 35.4 °F 78% 29.80 in 10.0 mi East 10.4 mph - N/A   Overcast
4:55 PM 41.9 °F - 35.8 °F 79% 29.80 in 10.0 mi Calm Calm - N/A   Overcast
5:15 PM 41.5 °F 39.6 °F 35.6 °F 79% 29.80 in 10.0 mi East 3.5 mph - N/A   Overcast
5:35 PM 41.0 °F 37.1 °F 35.6 °F 81% 29.81 in 10.0 mi East 5.8 mph - N/A   Overcast
5:55 PM 40.6 °F 37.5 °F 35.6 °F 82% 29.82 in 10.0 mi East 4.6 mph - N/A   Overcast
6:15 PM 40.1 °F 34.7 °F 36.0 °F 85% 29.81 in 4.0 mi East 8.1 mph - N/A   Overcast
6:35 PM 39.2 °F 34.2 °F 36.3 °F 89% 29.81 in 2.5 mi East 6.9 mph - N/A   Overcast
6:55 PM 38.8 °F 33.8 °F 36.5 °F 91% 29.80 in 3.0 mi ENE 6.9 mph - N/A   Overcast
7:15 PM 38.7 °F - 36.5 °F 92% 29.80 in 10.0 mi Calm Calm - N/A   Overcast
7:35 PM 38.7 °F - 36.0 °F 90% 29.80 in 10.0 mi Calm Calm - N/A   Overcast
7:55 PM 38.5 °F - 35.8 °F 90% 29.81 in 10.0 mi Calm Calm - N/A   Overcast
8:15 PM 38.5 °F 34.1 °F 35.8 °F 90% 29.81 in 10.0 mi ENE 5.8 mph - N/A   Overcast
8:35 PM 38.5 °F 35.0 °F 35.6 °F 89% 29.81 in 10.0 mi ENE 4.6 mph - N/A   Overcast
8:55 PM 38.3 °F 33.9 °F 35.6 °F 90% 29.81 in 10.0 mi ENE 5.8 mph - N/A   Overcast
9:15 PM 38.3 °F 34.8 °F 35.6 °F 90% 29.80 in 10.0 mi ENE 4.6 mph - N/A   Overcast
9:35 PM 37.9 °F 32.1 °F 35.6 °F 91% 29.78 in 10.0 mi ENE 8.1 mph - N/A   Overcast
9:55 PM 37.8 °F 31.8 °F 35.6 °F 92% 29.76 in 10.0 mi East 8.1 mph - N/A   Overcast
10:15 PM 37.8 °F - 35.6 °F 92% 29.77 in 10.0 mi Calm Calm - N/A   Overcast
10:35 PM 37.6 °F - 35.2 °F 91% 29.76 in 10.0 mi Calm Calm - N/A   Overcast
10:55 PM 37.4 °F - 35.2 °F 92% 29.77 in 10.0 mi Calm Calm - N/A   Overcast
11:15 PM 37.4 °F - 35.2 °F 92% 29.76 in 10.0 mi Calm Calm - N/A   Overcast
11:35 PM 37.4 °F - 35.1 °F 91% 29.75 in 10.0 mi Calm Calm - N/A   Overcast
11:55 PM 37.4 °F - 35.1 °F 91% 29.75 in 10.0 mi Calm Calm - N/A   Overcast